Regional Weather Roundup
Issued by NWS Spokane, WA

Home | Current Version | Previous Version | Text Only | Print | Product List | Glossary On
Versions: 1 2 3 4 5 6 7 8 9 10 11 12 13 14 15 16 17 18 19 20 21 22 23 24 25 26 27 28 29 30 31 32 33 34 35 36 37 38 39 40 41 42 43 44 45 46 47 48 49 50
000
NZUS01 KOTX 231710
RWROTX
EASTERN WASHINGTON/NORTHERN IDAHO ROUNDUP
NATIONAL WEATHER SERVICE, SPOKANE WA
1000 AM PDT SAT JUL 23 2016

Note: "fair" indicated few or no clouds below 12,000 feet with no
significant weather and/or obstructions to visibility.

...NORTHEAST WASHINGTON AND NORTHERN IDAHO PANHANDLE...

CITY           SKY/WX    TMP DP  RH WIND       PRES   REMARKS
SPOKANE INTL   MOSUNNY   65  45  48 SW14      30.19S
SPOKANE DOWNTO SUNNY     65  48  54 S8        30.19F
COEUR D ALENE  SUNNY     64  48  55 S6        30.18R
DEER PARK      MOSUNNY   61  49  64 S6        30.20R
SANDPOINT      PTSUNNY   59  52  77 SW7       30.20R
BONNERS FERRY    N/A     64  54  68 SW9       30.16S

...SOUTHEAST WASHINGTON AND SOUTHERN IDAHO PANHANDLE...

CITY           SKY/WX    TMP DP  RH WIND       PRES   REMARKS
WALLA WALLA    SUNNY     68  46  45 SW9       30.19F
PULLMAN/MOSCOW SUNNY     66  46  48 W10       30.22F
LEWISTON       SUNNY     71  47  42 NW7       30.18F
LOWELL           N/A     71  51  49 CALM      30.16F

...COLUMBIA BASIN...

CITY           SKY/WX    TMP DP  RH WIND       PRES   REMARKS
EPHRATA        SUNNY     73  44  35 VRB3      30.15S
MOSES LAKE     SUNNY     72  45  37 SW6       30.16F
TRI CITIES     SUNNY     72  49  44 VRB5      30.17F
HERMISTON      SUNNY     70  49  47 SW6       30.18F
PENDLETON      SUNNY     68  45  43 SW7G18    30.19F

...EAST SLOPES CASCADES...

CITY           SKY/WX    TMP DP  RH WIND       PRES   REMARKS
THE DALLES     SUNNY     71  48  43 NW18      30.18F
YAKIMA         SUNNY     74  46  36 VRB7      30.18F
ELLENSBURG     SUNNY     69  48  47 W15       30.18F
STAMPEDE PASS  CLOUDY    48  46  93 VRB3      30.28S
WENATCHEE      SUNNY     71  44  37 NW12      30.15F
OMAK           SUNNY     72  42  34 N10       30.15S

...SOUTHERN BRITISH COLUMBIA...

CITY           SKY/WX    TMP DP  RH WIND       PRES   REMARKS
PENTICTON      MOSUNNY   72  46  40 VRB3      30.14F
CASTLEGAR      PTSUNNY   64  55  72 S7        30.15S
CRANBROOK      PTSUNNY   68  48  49 E8        30.11S

...WESTERN MONTANA...

CITY           SKY/WX    TMP DP  RH WIND       PRES   REMARKS
MISSOULA       MOSUNNY   70  46  42 SE3       30.18F

...NEIGHBORING CITIES...

CITY           SKY/WX    TMP DP  RH WIND       PRES   REMARKS
SEATTLE        CLOUDY    61  56  83 W6        30.28F
CALGARY        MOSUNNY   68  50  52 S5        29.99S



USA.gov is the U.S. government's official web portal to all federal, state and local government web resources and services.